CZ-6A DEB, 54420

Orbit data source: Space-Track

CZ-6A DEB, 54420 is space debris in SSO originally from a launch on Fri, 11 Nov 2022 UTC launched from the Taiyaun Space Center, China (TSC). Debris objects in space refer to the collection of defunct objects orbiting the Earth. Examples of debris include non-operational satellites, rocket bodies, and fragments generated from explosions, collisions, or faulty payload assembly.

Loading next visibility...
Identifier
54420, 2022-151EU
Orbit
SSO
Country
Flag of CNCN / PRC
Related business
Manufacturer
SAST
Mission
Spacecraft
Bus & Motor
Unknown
Mass
Unknown
Launch date (UTC)
2022-11-11 (4 years ago)
Launch vehicle
Unknown
Launch site
Taiyaun Space Center, China (TSC)
Object type
Payload
Rocket body
Debris
Shape & HBR
Unknown shape, 0.1 m
Radar Cross Section
Medium (>0.1 m² and <1 m²)

Expand to show TLE details & history
Last TLE update: 2 days ago

TLE from 2 days ago
0 CZ-6A DEB
1 54420U 22151EU  26252.83861466  .00000595  00000-0  14200-3 0  9994
2 54420  98.6647 329.0247 0117246 327.3732  32.0256 14.53674828202192
Epoch: 2026-09-09T20:07Z
TLE epoch observation values (Epoch: 2026-09-09T20:07:36.306Z)
Latitude
-0.00005°
Longitude
38.2385°
Altitude
646.404 km
Speed
7.572 km/s
True Right ascension
21h 56m 05s
True Declination
0° 00' 00"
Sunlit
Object was in full shadow at epoch
Visualization orbit readout
Latitude
Unknown
Longitude
Unknown
Altitude
Unknown
Speed
Unknown
Apparent Right ascension
Unknown
Apparent Declination
Unknown
Sunlit
N/A
Visualization observer readout
Local Sidereal Time
15:12:24
Azimuth
Unknown
Elevation
Unknown
Doppler factor
Unknown
Orbital elements
Apogee altitude
793.897 km
Perigee altitude
627.668 km
Semi-major axis
7,088.919 km
Eccentricity
0.01172
Inclination
98.6647°
RAAN
329.0247°
Arg. of periapsis
327.3732°
True anomaly
32.74702°
Mean anomaly
32.0256°
Eccentric anomaly
32.38541°
Mean motion
3.63641 °/min
Orbital period
99 mins
BSTAR
0.000142
Loading maneuver chart data...
Computing Atmospheric mass density...

Documentation

Showing up to 5 results
|